Location: Byszew
(52.1813°N, 19.2693°E)
Time: 14:42:31
(UTC+00:00)

Cosmos 1898 Rocket - Pass Details

Date: 03 March 2021
Orbit: 753 x 784 km, 74.0° (Epoch: 13 April)

Event Time Altitude Azimuth Distance (km) Brightness Sun altitude
Rises 19:51:43 0° 333° (NNW) 3,229 7.6 -31.0°
Reaches altitude 10° 19:54:05 10° 331° (NNW) 2,303 6.7 -31.3°
Enters shadow 19:57:55 48° 315° (NW) 990 4.3 -31.7°
